N5DUP Weather Reports


Display with metric or nautical units.
time (UTC)temp
F
wind
direction
speed
MPH
gust
MPH
rain 1hr
in
rain 24hr
in
rain mn
in
humidity
%
barometer
mb
20260902143329 84 214 5.0 10.0 0.00 0.00 0.00 52 1016.1
20260902141841 83 196 4.0 8.0 0.00 0.00 0.00 54 1016.2
20260902140309 82 199 5.0 9.0 0.00 0.00 0.00 54 1016.2
20260902134803 81 209 4.0 11.0 0.00 0.00 0.00 56 1016.1
20260902133336 80 197 5.0 10.0 0.00 0.00 0.00 58 1016.0
20260902131808 79 192 4.0 10.0 0.00 0.00 0.00 60 1015.9
20260902130318 78 143 5.0 11.0 0.00 0.00 0.00 62 1015.9
20260902124810 76 177 4.0 8.0 0.00 0.00 0.00 64 1015.9
20260902123302 76 161 3.0 7.0 0.00 0.00 0.00 64 1015.7
20260902121836 76 192 5.0 9.0 0.00 0.00 0.00 64 1015.5
20260902120311 76 171 3.0 7.0 0.00 0.00 0.00 63 1015.4
20260902114806 76 171 4.0 7.0 0.00 0.00 0.00 63 1015.4
20260902113337 76 176 2.0 6.0 0.00 0.00 0.00 63 1015.3
20260902111814 76 174 3.0 7.0 0.00 0.00 0.00 62 1015.3
20260902110307 77 173 5.0 9.0 0.00 0.00 0.00 61 1015.3
20260902104801 77 171 4.0 9.0 0.00 0.00 0.00 61 1015.3
20260902103314 77 181 4.0 9.0 0.00 0.00 0.00 60 1015.3
20260902101808 77 176 4.0 7.0 0.00 0.00 0.00 60 1015.2
20260902100319 78 171 4.0 7.0 0.00 0.00 0.00 59 1015.2
20260902094816 78 193 3.0 9.0 0.00 0.00 0.00 58 1015.2
20260902093311 78 170 5.0 8.0 0.00 0.00 0.00 58 1015.2
20260902091805 78 181 4.0 8.0 0.00 0.00 0.00 57 1015.2
20260902090319 78 188 4.0 7.0 0.00 0.00 0.00 56 1015.3
20260902084813 78 180 4.0 9.0 0.00 0.00 0.00 55 1015.4
20260902083305 79 184 4.0 9.0 0.00 0.00 0.00 54 1015.3
20260902081818 79 169 4.0 9.0 0.00 0.00 0.00 54 1015.4
20260902080308 80 159 4.0 8.0 0.00 0.00 0.00 53 1015.3
20260902074802 80 169 4.0 7.0 0.00 0.00 0.00 53 1015.4
20260902073316 80 177 3.0 8.0 0.00 0.00 0.00 52 1015.5
20260902071809 80 178 3.0 9.0 0.00 0.00 0.00 51 1015.5
20260902070320 80 179 2.0 6.0 0.00 0.00 0.00 50 1015.5
20260902064818 81 181 3.0 7.0 0.00 0.00 0.00 49 1015.4
20260902063328 81 177 3.0 5.0 0.00 0.00 0.00 47 1015.4
20260902061839 82 182 4.0 6.0 0.00 0.00 0.00 46 1015.5
20260902060309 82 157 3.0 9.0 0.00 0.00 0.00 45 1015.3
20260902054820 82 176 2.0 6.0 0.00 0.00 0.00 44 1015.3
20260902053328 83 184 2.0 4.0 0.00 0.00 0.00 43 1015.3
20260902051819 84 177 2.0 4.0 0.00 0.00 0.00 42 1015.3
20260902050330 85 176 2.0 9.0 0.00 0.00 0.00 40 1015.3
20260902044814 85 183 3.0 9.0 0.00 0.00 0.00 39 1015.3
20260902043310 86 185 2.0 6.0 0.00 0.00 0.00 38 1015.3
20260902041829 87 173 2.0 8.0 0.00 0.00 0.00 37 1015.3
20260902040313 87 196 3.0 9.0 0.00 0.00 0.00 36 1015.2
20260902034804 88 195 2.0 7.0 0.00 0.00 0.00 35 1015.1
20260902033339 88 133 3.0 9.0 0.00 0.00 0.00 34 1014.9
20260902031812 88 194 2.0 6.0 0.00 0.00 0.00 33 1014.8
20260902030303 88 226 2.0 6.0 0.00 0.00 0.00 33 1014.6
20260902024805 88 169 1.0 4.0 0.00 0.00 0.00 33 1014.4
20260902023316 89 127 1.0 3.0 0.00 0.00 0.00 31 1014.1
20260902021811 89 160 0.0 2.0 0.00 0.00 0.00 28 1013.8
20260902020304 90 190 1.0 5.0 0.00 0.00 0.00 28 1013.5
20260902014824 90 186 2.0 4.0 0.00 0.00 0.00 28 1013.4
20260902013317 91 117 0.0 2.0 0.00 0.00 0.00 27 1013.3
20260902011836 92 194 1.0 4.0 0.00 0.00 0.00 27 1013.2
20260902010308 93 130 1.0 2.0 0.00 0.00 0.00 25 1013.1
20260902004824 94 118 1.0 4.0 0.00 0.00 0.00 24 1013.0
20260902003315 95 80 1.0 6.0 0.00 0.00 0.00 24 1013.2
20260902001811 96 98 2.0 11.0 0.00 0.00 0.00 23 1013.1
20260902000304 96 111 3.0 11.0 0.00 0.00 0.00 22 1013.0
20260901234819 97 90 4.0 11.0 0.00 0.00 0.00 21 1013.1
20260901233314 98 58 4.0 14.0 0.00 0.00 0.00 21 1013.1
20260901231828 99 78 6.0 11.0 0.00 0.00 0.00 20 1013.0
20260901230320 99 74 3.0 12.0 0.00 0.00 0.00 20 1012.9
20260901224814 100 167 1.0 5.0 0.00 0.00 0.00 20 1013.0
20260901223308 99 101 2.0 5.0 0.00 0.00 0.00 20 1013.1
20260901221840 99 215 0.0 4.0 0.00 0.00 0.00 21 1013.2
20260901220310 96 94 2.0 8.0 0.00 0.00 0.00 22 1013.4
20260901214840 97 164 2.0 8.0 0.00 0.00 0.00 22 1013.4
20260901213315 98 178 1.0 7.0 0.00 0.00 0.00 22 1013.6
20260901211808 97 25 3.0 9.0 0.00 0.00 0.00 22 1013.9
20260901210323 97 77 5.0 10.0 0.00 0.00 0.00 22 1014.1
20260901204816 98 73 4.0 10.0 0.00 0.00 0.00 22 1014.2
20260901203307 98 75 2.0 7.0 0.00 0.00 0.00 23 1014.3
20260901201820 96 35 2.0 8.0 0.00 0.00 0.00 24 1014.8
20260901200309 96 84 1.0 8.0 0.00 0.00 0.00 25 1015.0
20260901194821 95 65 3.0 11.0 0.00 0.00 0.00 26 1015.2
20260901193313 95 71 3.0 11.0 0.00 0.00 0.00 26 1015.3
20260901191812 96 82 4.0 13.0 0.00 0.00 0.00 25 1015.4
20260901190330 97 195 3.0 7.0 0.00 0.00 0.00 24 1015.5
20260901184820 98 99 7.0 11.0 0.00 0.00 0.00 25 1015.7
20260901183313 96 190 4.0 11.0 0.00 0.00 0.00 27 1015.9
20260901181822 96 227 3.0 12.0 0.00 0.00 0.00 27 1016.2
20260901180316 96 144 6.0 12.0 0.00 0.00 0.00 28 1016.4
20260901174809 94 173 5.0 10.0 0.00 0.00 0.00 29 1016.6
20260901173322 93 173 6.0 11.0 0.00 0.00 0.00 32 1016.8
20260901171815 93 190 6.0 13.0 0.00 0.00 0.00 32 1017.0
20260901170310 92 190 6.0 12.0 0.00 0.00 0.00 35 1017.2
20260901164819 91 201 7.0 13.0 0.00 0.00 0.00 36 1017.1
20260901163308 91 211 7.0 14.0 0.00 0.00 0.00 38 1017.3
20260901161818 90 162 5.0 11.0 0.00 0.00 0.00 40 1017.3
20260901160311 89 182 6.0 9.0 0.00 0.00 0.00 42 1017.3
20260901154821 88 195 7.0 14.0 0.00 0.00 0.00 43 1017.3
20260901153315 87 218 5.0 10.0 0.00 0.00 0.00 45 1017.3
20260901151808 86 196 7.0 14.0 0.00 0.00 0.00 46 1017.3
20260901150303 85 219 6.0 11.0 0.00 0.00 0.00 49 1017.3
20260901144813 84 184 6.0 12.0 0.00 0.00 0.00 50 1017.3